{"data":{"norad_id":51873,"epoch":"2026-09-20T02:24:02.255904Z","epoch_age_seconds":86412,"freshness":"FRESH","line1":"1 51873U 22022X   26263.10002611  .00024896  00000+0  93527-3 0  9999","line2":"2 51873  53.1992 194.0175 0006433 105.7212 254.4498 15.27045859252782","mean_motion":15.27045859,"eccentricity":0.0006433,"inclination_deg":53.1992,"raan_deg":194.0175,"arg_perigee_deg":105.7212,"mean_anomaly_deg":254.4498,"bstar":0.00093527,"rev_number":25278,"period_min":94.299722009855,"perigee_km":480.23414232658,"apogee_km":489.06380275885,"semimajor_km":6862.7859725427,"source":"CELESTRAK","updated_at":"2026-09-20T09:00:39.948852Z"}}